TVS4314 HEGN-ESMS

Flight info

Callsign TVS4314
Flight time N/A
Altitude 40000
Route BOTIX1B BOTIX V608 NABED T55 TANSA DCT RIGRO UN133 GIKAS UL608 FSK UN128 RUGAS DCT RAXAD DCT TONDO DCT PEPIK DCT HDO M725 KOGIM M44 ARGAD Z400 BAKLI
Aircraft B38M/M-SDE1FGHILORVWXY/HB1

Departure

Time 2026-05-05 17:00
Airport Hurghada International Airport (HEGN)

Arrival

Time N/A
Airport Malmö Sturup Airport (ESMS)
Time Latitude Longitude Altitude Speed Heading
2026-05-05 16:34 27.17669 33.80501 56 ft 0 kts 255°
2026-05-05 16:48 27.17671 33.80509 60 ft 4 kts 253°
2026-05-05 16:49 27.17680 33.80535 53 ft 4 kts 241°
2026-05-05 16:49 27.17695 33.80557 53 ft 4 kts 216°
2026-05-05 16:49 27.17714 33.80564 52 ft 3 kts 167°
2026-05-05 16:49 27.17717 33.80564 52 ft 0 kts 165°
2026-05-05 16:53 27.17703 33.80568 52 ft 6 kts 165°
2026-05-05 16:54 27.17625 33.80591 59 ft 15 kts 165°
2026-05-05 16:54 27.17513 33.80613 57 ft 17 kts 200°
2026-05-05 16:54 27.17465 33.80489 58 ft 19 kts 254°
2026-05-05 16:54 27.17427 33.80328 48 ft 14 kts 254°
2026-05-05 16:55 27.17400 33.80217 51 ft 15 kts 255°
2026-05-05 16:55 27.17373 33.80101 57 ft 16 kts 253°
2026-05-05 16:55 27.17341 33.79969 54 ft 19 kts 256°
2026-05-05 16:55 27.17302 33.79809 72 ft 24 kts 256°
2026-05-05 16:56 27.17258 33.79623 99 ft 26 kts 255°
2026-05-05 16:56 27.17166 33.79510 106 ft 20 kts 165°
2026-05-05 16:56 27.17026 33.79550 109 ft 21 kts 166°
2026-05-05 16:56 27.16880 33.79594 109 ft 23 kts 164°
2026-05-05 16:57 27.16709 33.79644 109 ft 26 kts 165°
2026-05-05 16:57 27.16531 33.79697 110 ft 27 kts 165°
2026-05-05 16:57 27.16349 33.79750 116 ft 27 kts 165°
2026-05-05 16:57 27.16161 33.79807 117 ft 28 kts 165°
2026-05-05 16:58 27.15984 33.79859 120 ft 19 kts 172°
2026-05-05 16:58 27.15931 33.79811 123 ft 3 kts 255°
2026-05-05 16:58 27.15925 33.79786 124 ft 6 kts 255°
2026-05-05 16:58 27.15911 33.79697 122 ft 16 kts 283°
2026-05-05 16:59 27.16018 33.79651 120 ft 24 kts 347°
2026-05-05 16:59 27.16402 33.79539 114 ft 89 kts 346°
2026-05-05 16:59 27.17176 33.79309 114 ft 138 kts 345°
2026-05-05 16:59 27.18171 33.79016 462 ft 152 kts 346°
2026-05-05 17:00 27.19190 33.78733 1160 ft 148 kts 344°
2026-05-05 17:00 27.20178 33.78461 1838 ft 151 kts 342°
2026-05-05 17:00 27.21271 33.78150 2166 ft 173 kts 342°
2026-05-05 17:00 27.22526 33.77792 2463 ft 200 kts 342°
2026-05-05 17:01 27.23950 33.77358 2871 ft 222 kts 339°
2026-05-05 17:01 27.25207 33.76445 3667 ft 224 kts 311°
2026-05-05 17:01 27.25925 33.74832 4177 ft 243 kts 283°
2026-05-05 17:01 27.26071 33.72911 4977 ft 247 kts 275°
2026-05-05 17:02 27.26144 33.70973 5867 ft 249 kts 274°
2026-05-05 17:02 27.26230 33.69013 6684 ft 253 kts 274°
2026-05-05 17:02 27.26333 33.67026 7472 ft 256 kts 274°
2026-05-05 17:02 27.26452 33.65018 8271 ft 259 kts 274°
2026-05-05 17:03 27.26540 33.63675 8810 ft 260 kts 274°
2026-05-05 17:03 27.26683 33.61635 9625 ft 263 kts 274°
2026-05-05 17:03 27.26892 33.58897 10493 ft 274 kts 274°
2026-05-05 17:03 27.27064 33.56687 10796 ft 294 kts 274°
2026-05-05 17:04 27.27141 33.54321 11078 ft 312 kts 271°
2026-05-05 17:04 27.27188 33.52652 11349 ft 320 kts 271°
2026-05-05 17:04 27.27258 33.50122 11981 ft 323 kts 271°
2026-05-05 17:04 27.27327 33.47584 12740 ft 326 kts 271°
2026-05-05 17:05 27.27396 33.45033 13501 ft 328 kts 271°
2026-05-05 17:05 27.27464 33.42457 14232 ft 330 kts 271°
2026-05-05 17:05 27.27533 33.39861 14915 ft 334 kts 271°
2026-05-05 17:05 27.27601 33.37278 15589 ft 337 kts 271°
2026-05-05 17:06 27.27671 33.34598 16239 ft 341 kts 271°
2026-05-05 17:06 27.27739 33.31952 16866 ft 344 kts 271°
2026-05-05 17:06 27.27808 33.29253 17477 ft 346 kts 271°
2026-05-05 17:06 27.27878 33.26527 18097 ft 350 kts 271°
2026-05-05 17:07 27.27947 33.23782 18638 ft 353 kts 271°
2026-05-05 17:07 27.28017 33.21000 19076 ft 358 kts 271°
2026-05-05 17:07 27.28087 33.18201 19717 ft 358 kts 271°
2026-05-05 17:07 27.28156 33.15388 20201 ft 363 kts 271°
2026-05-05 17:08 27.28227 33.12549 20759 ft 365 kts 271°
2026-05-05 17:08 27.28297 33.09639 21318 ft 368 kts 270°
2026-05-05 17:08 27.28366 33.06785 21842 ft 371 kts 270°
2026-05-05 17:08 27.28436 33.03872 22376 ft 374 kts 270°
2026-05-05 17:09 27.28505 33.00928 22927 ft 378 kts 270°
2026-05-05 17:09 27.28575 32.97963 23470 ft 381 kts 270°
2026-05-05 17:09 27.28645 32.94960 23946 ft 384 kts 270°
2026-05-05 17:09 27.28714 32.91956 24447 ft 386 kts 270°
2026-05-05 17:10 27.28784 32.88929 24931 ft 388 kts 270°
2026-05-05 17:10 27.28852 32.85881 25408 ft 391 kts 270°
2026-05-05 17:10 27.28921 32.82822 25884 ft 393 kts 270°
2026-05-05 17:10 27.28990 32.79739 26344 ft 395 kts 270°
2026-05-05 17:11 27.29058 32.76638 26802 ft 398 kts 270°
2026-05-05 17:11 27.29125 32.73554 27230 ft 401 kts 270°
2026-05-05 17:11 27.29192 32.70415 27666 ft 403 kts 270°
2026-05-05 17:11 27.29260 32.67255 28096 ft 405 kts 270°
2026-05-05 17:12 27.29327 32.64071 28526 ft 408 kts 270°
2026-05-05 17:12 27.29394 32.60875 28934 ft 411 kts 270°
2026-05-05 17:12 27.29460 32.57654 29342 ft 413 kts 270°
2026-05-05 17:12 27.29526 32.54411 29779 ft 415 kts 270°
2026-05-05 17:13 27.29591 32.51171 30309 ft 414 kts 270°
2026-05-05 17:13 27.29656 32.47948 30825 ft 411 kts 270°
2026-05-05 17:13 27.29719 32.44741 31317 ft 410 kts 270°
2026-05-05 17:13 27.29781 32.41537 31817 ft 408 kts 270°
2026-05-05 17:14 27.29843 32.38350 32326 ft 407 kts 270°
2026-05-05 17:14 27.29903 32.35179 32839 ft 405 kts 270°
2026-05-05 17:14 27.29975 32.32012 33356 ft 403 kts 272°
2026-05-05 17:14 27.30543 32.28927 33850 ft 407 kts 287°
2026-05-05 17:15 27.31890 32.26112 34298 ft 414 kts 300°
2026-05-05 17:15 27.33567 32.23528 34656 ft 414 kts 300°
2026-05-05 17:15 27.35291 32.20920 35049 ft 414 kts 300°
2026-05-05 17:15 27.37023 32.18342 35445 ft 413 kts 300°
2026-05-05 17:16 27.38763 32.15778 35827 ft 411 kts 300°
2026-05-05 17:16 27.40504 32.13226 36215 ft 410 kts 300°
2026-05-05 17:16 27.42241 32.10685 36587 ft 409 kts 300°
2026-05-05 17:16 27.43975 32.08149 36953 ft 407 kts 300°
2026-05-05 17:17 27.45701 32.05623 37305 ft 406 kts 300°
2026-05-05 17:17 27.47418 32.03111 37657 ft 405 kts 300°
2026-05-05 17:17 27.49114 32.00626 37967 ft 404 kts 300°
2026-05-05 17:17 27.50821 31.98124 38282 ft 403 kts 299°
2026-05-05 17:18 27.52529 31.95620 38578 ft 402 kts 299°
2026-05-05 17:18 27.54232 31.93122 38841 ft 401 kts 299°
2026-05-05 17:18 27.55930 31.90631 39057 ft 400 kts 299°
2026-05-05 17:18 27.57628 31.88136 39256 ft 400 kts 299°
2026-05-05 17:19 27.59319 31.85652 39438 ft 400 kts 299°
2026-05-05 17:19 27.60993 31.83189 39608 ft 400 kts 299°
2026-05-05 17:19 27.62684 31.80702 39798 ft 400 kts 299°
2026-05-05 17:19 27.64380 31.78206 39961 ft 399 kts 299°
2026-05-05 17:20 27.66071 31.75715 40077 ft 400 kts 299°
2026-05-05 17:20 27.67765 31.73217 40086 ft 400 kts 299°
2026-05-05 17:20 27.71133 31.68250 40096 ft 398 kts 299°
2026-05-05 17:21 27.74506 31.63269 40102 ft 399 kts 299°
2026-05-05 17:22 27.79559 31.55796 40103 ft 399 kts 299°
2026-05-05 17:22 27.82932 31.50800 40106 ft 399 kts 299°
2026-05-05 17:23 27.86277 31.45840 40092 ft 399 kts 299°
2026-05-05 17:23 27.89644 31.40842 40108 ft 400 kts 299°
2026-05-05 17:24 27.93012 31.35837 40100 ft 400 kts 299°
2026-05-05 17:24 27.96383 31.30821 40097 ft 400 kts 299°
2026-05-05 17:25 27.99753 31.25802 40103 ft 400 kts 299°
2026-05-05 17:25 28.03122 31.20778 40104 ft 400 kts 299°
2026-05-05 17:26 28.06490 31.15747 40103 ft 400 kts 298°
2026-05-05 17:26 28.09532 31.10573 40107 ft 397 kts 296°
2026-05-05 17:27 28.12605 31.05355 40105 ft 398 kts 296°
2026-05-05 17:27 28.15684 31.00141 40102 ft 398 kts 296°
2026-05-05 17:28 28.18761 30.94921 40066 ft 400 kts 297°
2026-05-05 17:28 28.21875 30.89637 40103 ft 406 kts 297°
2026-05-05 17:29 28.25034 30.84268 40097 ft 410 kts 297°
2026-05-05 17:29 28.28199 30.78881 40095 ft 410 kts 297°
2026-05-05 17:30 28.31338 30.73534 40097 ft 410 kts 297°
2026-05-05 17:30 28.34491 30.68154 40095 ft 409 kts 297°
2026-05-05 17:31 28.37648 30.62762 40092 ft 409 kts 297°
2026-05-05 17:31 28.40800 30.57370 40092 ft 409 kts 297°
2026-05-05 17:32 28.43945 30.51983 40094 ft 409 kts 297°
2026-05-05 17:32 28.47094 30.46585 40093 ft 409 kts 297°
2026-05-05 17:33 28.50238 30.41186 40093 ft 409 kts 297°
2026-05-05 17:33 28.53379 30.35787 40089 ft 409 kts 297°
2026-05-05 17:34 28.56518 30.30383 40090 ft 409 kts 297°
2026-05-05 17:34 28.59656 30.24976 40089 ft 409 kts 297°
2026-05-05 17:35 28.62770 30.19602 40088 ft 409 kts 297°
2026-05-05 17:35 28.65899 30.14195 40089 ft 409 kts 297°
2026-05-05 17:36 28.69024 30.08788 40086 ft 409 kts 297°
2026-05-05 17:36 28.72155 30.03365 40088 ft 409 kts 298°
2026-05-05 17:37 28.75285 29.97935 40088 ft 409 kts 298°
2026-05-05 17:37 28.78401 29.92523 40081 ft 408 kts 298°
2026-05-05 17:38 28.81494 29.87143 40083 ft 408 kts 298°
2026-05-05 17:38 28.84605 29.81726 40077 ft 408 kts 298°
2026-05-05 17:39 28.87738 29.76264 40079 ft 408 kts 298°
2026-05-05 17:39 28.90846 29.70837 40077 ft 408 kts 298°
2026-05-05 17:40 28.93928 29.65451 40079 ft 408 kts 298°
2026-05-05 17:40 28.97048 29.59989 40075 ft 408 kts 298°
2026-05-05 17:41 29.00125 29.54596 40075 ft 408 kts 298°
2026-05-05 17:41 29.03226 29.49156 40073 ft 408 kts 298°
2026-05-05 17:42 29.06318 29.43724 40075 ft 407 kts 298°
2026-05-05 17:42 29.09406 29.38294 40076 ft 407 kts 298°
2026-05-05 17:43 29.12994 29.33257 40060 ft 419 kts 318°
2026-05-05 17:43 29.18180 29.29957 40071 ft 430 kts 326°
2026-05-05 17:44 29.23548 29.26911 40083 ft 431 kts 327°
2026-05-05 17:44 29.28954 29.23914 40084 ft 431 kts 327°
2026-05-05 17:45 29.33436 29.21441 40078 ft 430 kts 327°
2026-05-05 17:45 29.39713 29.17975 40079 ft 430 kts 327°
2026-05-05 17:46 29.44224 29.15481 40078 ft 430 kts 327°
2026-05-05 17:46 29.49612 29.12499 40091 ft 429 kts 327°
2026-05-05 17:47 29.54989 29.09520 40087 ft 428 kts 327°
2026-05-05 17:47 29.60320 29.06562 40096 ft 428 kts 327°
2026-05-05 17:48 29.65689 29.03581 40098 ft 428 kts 328°
2026-05-05 17:48 29.71048 29.00601 40099 ft 428 kts 328°
2026-05-05 17:49 29.76415 28.97613 40101 ft 428 kts 328°
2026-05-05 17:49 29.81774 28.94626 40098 ft 427 kts 328°
2026-05-05 17:50 29.87122 28.91641 40101 ft 427 kts 328°
2026-05-05 17:50 29.92466 28.88655 40101 ft 427 kts 328°
2026-05-05 17:51 29.97803 28.85670 40105 ft 426 kts 328°
2026-05-05 17:51 30.03139 28.82681 40105 ft 426 kts 328°
2026-05-05 17:52 30.08437 28.79711 40113 ft 425 kts 328°
2026-05-05 17:52 30.13755 28.76725 40105 ft 425 kts 328°
2026-05-05 17:53 30.19072 28.73736 40115 ft 425 kts 328°
2026-05-05 17:53 30.24386 28.70745 40108 ft 424 kts 328°
2026-05-05 17:54 30.29691 28.67757 40110 ft 424 kts 328°
2026-05-05 17:54 30.34992 28.64766 40115 ft 423 kts 328°
2026-05-05 17:55 30.40286 28.61776 40120 ft 423 kts 328°
2026-05-05 17:55 30.45579 28.58783 40121 ft 423 kts 328°
2026-05-05 17:56 30.50870 28.55787 40125 ft 422 kts 328°
2026-05-05 17:56 30.56123 28.52809 40123 ft 422 kts 328°
2026-05-05 17:57 30.61400 28.49814 40127 ft 422 kts 328°
2026-05-05 17:57 30.66666 28.46822 40133 ft 421 kts 328°
2026-05-05 17:58 30.71940 28.43821 40131 ft 421 kts 328°
2026-05-05 17:58 30.77174 28.40840 40132 ft 421 kts 328°
2026-05-05 17:59 30.82429 28.37843 40132 ft 420 kts 328°
2026-05-05 17:59 30.87686 28.34841 40134 ft 420 kts 328°
2026-05-05 18:00 30.92938 28.31838 40134 ft 420 kts 328°
2026-05-05 18:00 30.98180 28.28837 40133 ft 419 kts 328°
2026-05-05 18:01 31.03418 28.25835 40130 ft 419 kts 328°
2026-05-05 18:01 31.08653 28.22831 40131 ft 419 kts 328°
2026-05-05 18:02 31.13876 28.19830 40129 ft 418 kts 328°
2026-05-05 18:02 31.19063 28.16846 40131 ft 418 kts 328°
2026-05-05 18:03 31.24273 28.13845 40131 ft 417 kts 328°
2026-05-05 18:03 31.29482 28.10841 40131 ft 417 kts 328°
2026-05-05 18:04 31.34691 28.07834 40130 ft 417 kts 328°
2026-05-05 18:04 31.39892 28.04829 40129 ft 416 kts 328°
2026-05-05 18:05 31.45084 28.01824 40130 ft 416 kts 328°
2026-05-05 18:05 31.50343 27.98956 40124 ft 420 kts 335°
2026-05-05 18:06 31.55778 27.96552 40130 ft 420 kts 333°
2026-05-05 18:06 31.61229 27.94063 40127 ft 420 kts 333°
2026-05-05 18:07 31.66671 27.91563 40126 ft 420 kts 333°
2026-05-05 18:07 31.72124 27.89054 40126 ft 421 kts 333°
2026-05-05 18:08 31.77577 27.86542 40129 ft 421 kts 334°
2026-05-05 18:08 31.83055 27.84015 40126 ft 422 kts 334°
2026-05-05 18:09 31.88515 27.81494 40124 ft 422 kts 334°
2026-05-05 18:09 31.93991 27.78983 40121 ft 422 kts 334°
2026-05-05 18:10 31.99459 27.76471 40119 ft 422 kts 334°
2026-05-05 18:10 32.04920 27.73959 40120 ft 421 kts 334°
2026-05-05 18:11 32.10390 27.71441 40116 ft 421 kts 334°
2026-05-05 18:11 32.15812 27.68940 40117 ft 421 kts 334°
2026-05-05 18:12 32.21266 27.66421 40119 ft 420 kts 334°
2026-05-05 18:12 32.26708 27.63905 40107 ft 420 kts 334°
2026-05-05 18:13 32.32140 27.61389 40115 ft 419 kts 334°
2026-05-05 18:13 32.37577 27.58865 40119 ft 419 kts 334°
2026-05-05 18:14 32.43003 27.56342 40111 ft 419 kts 334°
2026-05-05 18:14 32.48428 27.53817 40110 ft 418 kts 334°
2026-05-05 18:15 32.53847 27.51291 40111 ft 418 kts 334°
2026-05-05 18:15 32.59265 27.48762 40107 ft 418 kts 334°
2026-05-05 18:16 32.64641 27.46250 40111 ft 418 kts 334°
2026-05-05 18:16 32.70055 27.43717 40103 ft 418 kts 334°
2026-05-05 18:17 32.75470 27.41170 40106 ft 418 kts 334°
2026-05-05 18:17 32.80875 27.38625 40107 ft 418 kts 334°
2026-05-05 18:18 32.86283 27.36075 40109 ft 418 kts 334°
2026-05-05 18:18 32.91685 27.33525 40109 ft 418 kts 334°
2026-05-05 18:19 32.97092 27.30969 40103 ft 418 kts 334°
2026-05-05 18:19 33.02496 27.28411 40105 ft 417 kts 334°
2026-05-05 18:20 33.07893 27.25853 40103 ft 417 kts 334°
2026-05-05 18:20 33.13285 27.23294 40101 ft 417 kts 334°
2026-05-05 18:21 33.18648 27.20746 40103 ft 417 kts 334°
2026-05-05 18:21 33.24038 27.18181 40102 ft 417 kts 334°
2026-05-05 18:22 33.29423 27.15615 40100 ft 416 kts 334°
2026-05-05 18:22 33.34804 27.13048 40099 ft 416 kts 334°
2026-05-05 18:23 33.40181 27.10479 40102 ft 416 kts 334°
2026-05-05 18:23 33.45552 27.07910 40098 ft 416 kts 334°
2026-05-05 18:24 33.50919 27.05339 40094 ft 415 kts 334°
2026-05-05 18:24 33.56288 27.02762 40096 ft 415 kts 334°
2026-05-05 18:25 33.61657 27.00183 40097 ft 415 kts 334°
2026-05-05 18:25 33.67013 26.97605 40094 ft 415 kts 334°
2026-05-05 18:26 33.72367 26.95025 40090 ft 414 kts 334°
2026-05-05 18:26 33.77690 26.92456 40098 ft 414 kts 334°
2026-05-05 18:27 33.83034 26.89874 40095 ft 414 kts 334°
2026-05-05 18:27 33.88381 26.87288 40092 ft 414 kts 334°
2026-05-05 18:28 33.95496 26.83840 40091 ft 413 kts 334°
2026-05-05 18:28 34.00807 26.81216 40097 ft 413 kts 334°
2026-05-05 18:29 34.06124 26.78584 40096 ft 413 kts 334°
2026-05-05 18:29 34.11433 26.75954 40087 ft 412 kts 334°
2026-05-05 18:30 34.16736 26.73323 40090 ft 412 kts 334°
2026-05-05 18:30 34.22044 26.70686 40094 ft 412 kts 334°
2026-05-05 18:31 34.27346 26.68049 40089 ft 411 kts 334°
2026-05-05 18:31 34.32639 26.65412 40088 ft 411 kts 334°
2026-05-05 18:32 34.37904 26.62786 40087 ft 411 kts 334°
2026-05-05 18:32 34.43194 26.60143 40090 ft 411 kts 334°
2026-05-05 18:33 34.48479 26.57500 40089 ft 411 kts 334°
2026-05-05 18:33 34.53762 26.54853 40088 ft 410 kts 334°
2026-05-05 18:34 34.59043 26.52205 40084 ft 410 kts 334°
2026-05-05 18:34 34.64287 26.49571 40088 ft 410 kts 334°
2026-05-05 18:35 34.69553 26.46923 40086 ft 410 kts 334°
2026-05-05 18:35 34.74822 26.44269 40082 ft 410 kts 334°
2026-05-05 18:36 34.80091 26.41611 40084 ft 410 kts 334°
2026-05-05 18:36 34.85361 26.38950 40084 ft 409 kts 334°
2026-05-05 18:37 34.90625 26.36288 40083 ft 409 kts 334°
2026-05-05 18:37 34.95894 26.33619 40082 ft 409 kts 334°
2026-05-05 18:38 35.01153 26.30952 40084 ft 409 kts 334°
2026-05-05 18:38 35.06381 26.28297 40083 ft 408 kts 334°
2026-05-05 18:39 35.11628 26.25628 40080 ft 408 kts 334°
2026-05-05 18:39 35.16871 26.22958 40071 ft 408 kts 334°
2026-05-05 18:40 35.22108 26.20287 40080 ft 408 kts 334°
2026-05-05 18:40 35.27352 26.17609 40080 ft 407 kts 334°
2026-05-05 18:41 35.32588 26.14932 40080 ft 407 kts 334°
2026-05-05 18:41 35.37781 26.12271 40079 ft 407 kts 334°
2026-05-05 18:42 35.43008 26.09591 40081 ft 407 kts 334°
2026-05-05 18:42 35.48232 26.06908 40078 ft 407 kts 334°
2026-05-05 18:43 35.53459 26.04219 40080 ft 407 kts 334°
2026-05-05 18:43 35.58685 26.01528 40078 ft 407 kts 334°
2026-05-05 18:44 35.63907 25.98834 40077 ft 407 kts 334°
2026-05-05 18:44 35.69132 25.96135 40079 ft 407 kts 334°
2026-05-05 18:45 35.74357 25.93433 40079 ft 407 kts 334°
2026-05-05 18:45 35.79592 25.90721 40076 ft 408 kts 334°
2026-05-05 18:46 35.84791 25.88024 40076 ft 408 kts 334°
2026-05-05 18:46 35.90030 25.85302 40075 ft 408 kts 334°
2026-05-05 18:47 35.95268 25.82578 40079 ft 409 kts 334°
2026-05-05 18:47 36.00515 25.79844 40077 ft 409 kts 334°
2026-05-05 18:48 36.05763 25.77106 40078 ft 409 kts 334°
2026-05-05 18:48 36.11017 25.74361 40080 ft 409 kts 334°
2026-05-05 18:49 36.16266 25.71614 40075 ft 410 kts 334°
2026-05-05 18:49 36.21513 25.68865 40074 ft 410 kts 334°
2026-05-05 18:50 36.26770 25.66106 40080 ft 410 kts 334°
2026-05-05 18:50 36.31986 25.63365 40073 ft 410 kts 334°
2026-05-05 18:51 36.37239 25.60600 40072 ft 410 kts 334°
2026-05-05 18:51 36.42515 25.57819 40083 ft 409 kts 334°
2026-05-05 18:52 36.47758 25.55052 40070 ft 409 kts 334°
2026-05-05 18:52 36.52974 25.52294 40072 ft 409 kts 334°
2026-05-05 18:53 36.58209 25.49522 40073 ft 409 kts 334°
2026-05-05 18:53 36.63433 25.46752 40068 ft 409 kts 334°
2026-05-05 18:54 36.68670 25.43971 40066 ft 409 kts 334°
2026-05-05 18:54 36.73907 25.41186 40060 ft 409 kts 334°
2026-05-05 18:55 36.79134 25.38403 40064 ft 408 kts 334°
2026-05-05 18:55 36.84369 25.35610 40066 ft 408 kts 334°
2026-05-05 18:56 36.89558 25.32838 40071 ft 408 kts 334°
2026-05-05 18:56 36.94786 25.30042 40074 ft 408 kts 334°
2026-05-05 18:57 37.00019 25.27238 40075 ft 408 kts 334°
2026-05-05 18:57 37.05237 25.24438 40076 ft 408 kts 334°
2026-05-05 18:58 37.10460 25.21631 40077 ft 408 kts 334°
2026-05-05 18:58 37.15682 25.18821 40071 ft 408 kts 334°
2026-05-05 18:59 37.20894 25.16011 40067 ft 408 kts 334°
2026-05-05 18:59 37.26117 25.13192 40066 ft 408 kts 334°
2026-05-05 19:00 37.31337 25.10370 40072 ft 408 kts 334°
2026-05-05 19:00 37.36550 25.07547 40073 ft 408 kts 334°
2026-05-05 19:01 37.41771 25.04716 40074 ft 408 kts 334°
2026-05-05 19:01 37.46989 25.01882 40077 ft 408 kts 334°
2026-05-05 19:02 37.52200 24.99048 40077 ft 408 kts 334°
2026-05-05 19:02 37.57389 24.96221 40074 ft 408 kts 334°
2026-05-05 19:03 37.62607 24.93374 40074 ft 408 kts 334°
2026-05-05 19:03 37.67833 24.90518 40072 ft 408 kts 334°
2026-05-05 19:04 37.73022 24.87678 40072 ft 408 kts 334°
2026-05-05 19:04 37.78237 24.84820 40065 ft 408 kts 334°
2026-05-05 19:05 37.83449 24.81959 40063 ft 408 kts 334°
2026-05-05 19:05 37.88657 24.79096 40072 ft 408 kts 334°
2026-05-05 19:06 37.93839 24.76241 40073 ft 408 kts 334°
2026-05-05 19:06 37.99056 24.73364 40068 ft 408 kts 334°
2026-05-05 19:07 38.03388 24.70971 40066 ft 408 kts 334°
2026-05-05 19:07 38.09453 24.67616 40064 ft 409 kts 334°
2026-05-05 19:08 38.13818 24.65199 40062 ft 409 kts 334°
2026-05-05 19:08 38.19885 24.61832 40062 ft 409 kts 334°
2026-05-05 19:09 38.24234 24.59415 40063 ft 409 kts 334°
2026-05-05 19:09 38.29457 24.56508 40062 ft 410 kts 334°
2026-05-05 19:10 38.34685 24.53593 40060 ft 410 kts 334°
2026-05-05 19:10 38.39919 24.50671 40060 ft 411 kts 334°
2026-05-05 19:11 38.45167 24.47737 40060 ft 411 kts 334°
2026-05-05 19:11 38.50382 24.44816 40056 ft 412 kts 334°
2026-05-05 19:12 38.55634 24.41869 40058 ft 412 kts 334°
2026-05-05 19:12 38.60891 24.38915 40056 ft 412 kts 334°
2026-05-05 19:13 38.66145 24.35958 40057 ft 413 kts 334°
2026-05-05 19:13 38.71411 24.32990 40056 ft 413 kts 334°
2026-05-05 19:14 38.76677 24.30016 40056 ft 413 kts 334°
2026-05-05 19:14 38.81904 24.27060 40055 ft 413 kts 334°
2026-05-05 19:15 38.87177 24.24073 40053 ft 414 kts 334°
2026-05-05 19:15 38.92452 24.21080 40054 ft 414 kts 334°
2026-05-05 19:16 38.97725 24.18084 40051 ft 414 kts 334°
2026-05-05 19:16 39.03009 24.15076 40049 ft 414 kts 334°
2026-05-05 19:17 39.08286 24.12067 40047 ft 414 kts 334°
2026-05-05 19:17 39.13566 24.09052 40047 ft 414 kts 334°
2026-05-05 19:18 39.18829 24.06041 40048 ft 414 kts 334°
2026-05-05 19:18 39.24125 24.03006 40041 ft 414 kts 334°
2026-05-05 19:19 39.29386 23.99987 40035 ft 414 kts 334°
2026-05-05 19:19 39.34667 23.96951 40037 ft 414 kts 334°
2026-05-05 19:20 39.39892 23.93942 40044 ft 414 kts 334°
2026-05-05 19:20 39.45198 23.90881 40039 ft 414 kts 334°
2026-05-05 19:21 39.50437 23.87855 40041 ft 414 kts 334°
2026-05-05 19:21 39.55705 23.84806 40034 ft 414 kts 334°
2026-05-05 19:22 39.60970 23.81754 40033 ft 413 kts 334°
2026-05-05 19:22 39.66196 23.78719 40035 ft 413 kts 334°
2026-05-05 19:23 39.71441 23.75669 40036 ft 413 kts 334°
2026-05-05 19:23 39.76687 23.72612 40044 ft 413 kts 334°
2026-05-05 19:24 39.81933 23.69551 40038 ft 413 kts 334°
2026-05-05 19:24 39.87138 23.66509 40035 ft 412 kts 334°
2026-05-05 19:25 39.92374 23.63443 40030 ft 412 kts 334°
2026-05-05 19:25 39.97600 23.60377 40032 ft 412 kts 334°
2026-05-05 19:26 40.02831 23.57304 40033 ft 411 kts 334°
2026-05-05 19:26 40.08024 23.54249 40036 ft 411 kts 334°
2026-05-05 19:27 40.13255 23.51164 40033 ft 411 kts 334°
2026-05-05 19:27 40.18476 23.48081 40028 ft 411 kts 334°
2026-05-05 19:28 40.23665 23.45013 40028 ft 411 kts 334°
2026-05-05 19:28 40.27650 23.42652 40029 ft 412 kts 334°
2026-05-05 19:29 40.32733 23.39636 40027 ft 412 kts 334°
2026-05-05 19:29 40.37949 23.36537 40024 ft 412 kts 334°
2026-05-05 19:30 40.43141 23.33446 40017 ft 412 kts 334°
2026-05-05 19:30 40.48367 23.30330 40009 ft 412 kts 334°
2026-05-05 19:31 40.53498 23.27265 40004 ft 412 kts 334°
2026-05-05 19:31 40.58695 23.24156 40017 ft 412 kts 334°
2026-05-05 19:32 40.63917 23.21027 40019 ft 412 kts 334°
2026-05-05 19:32 40.69138 23.17893 40016 ft 412 kts 334°
2026-05-05 19:33 40.74359 23.14755 40014 ft 412 kts 334°
2026-05-05 19:33 40.79584 23.11608 40016 ft 412 kts 334°
2026-05-05 19:34 40.84780 23.08474 40008 ft 413 kts 334°
2026-05-05 19:35 40.92620 23.03734 40010 ft 413 kts 334°
2026-05-05 19:35 40.97850 23.00566 40006 ft 413 kts 334°
2026-05-05 19:36 41.03060 22.97404 40009 ft 413 kts 334°
2026-05-05 19:36 41.08295 22.94221 40005 ft 414 kts 334°
2026-05-05 19:37 41.13537 22.91029 40009 ft 414 kts 334°
2026-05-05 19:37 41.18774 22.87834 40006 ft 414 kts 334°
2026-05-05 19:38 41.24025 22.84625 40013 ft 415 kts 334°
2026-05-05 19:38 41.29243 22.81430 40010 ft 415 kts 334°
2026-05-05 19:39 41.34539 22.78338 40008 ft 415 kts 336°
2026-05-05 19:39 41.39887 22.75392 40016 ft 416 kts 335°
2026-05-05 19:40 41.45205 22.72447 40016 ft 417 kts 335°
2026-05-05 19:40 41.50561 22.69474 40018 ft 417 kts 335°
2026-05-05 19:41 41.55975 22.66465 40019 ft 418 kts 335°
2026-05-05 19:41 41.61316 22.63490 40014 ft 418 kts 335°
2026-05-05 19:42 41.66693 22.60490 40021 ft 419 kts 335°
2026-05-05 19:42 41.72076 22.57482 40018 ft 419 kts 335°
2026-05-05 19:43 41.77462 22.54465 40024 ft 420 kts 335°
2026-05-05 19:43 41.82818 22.51460 40025 ft 420 kts 335°
2026-05-05 19:44 41.88220 22.48424 40025 ft 420 kts 335°
2026-05-05 19:44 41.93622 22.45383 40024 ft 421 kts 335°
2026-05-05 19:45 41.99033 22.42330 40031 ft 422 kts 335°
2026-05-05 19:45 42.04251 22.38742 40026 ft 421 kts 330°
2026-05-05 19:46 42.09426 22.35067 40031 ft 421 kts 331°
2026-05-05 19:46 42.14622 22.31409 40021 ft 421 kts 331°
2026-05-05 19:47 42.19786 22.27771 40025 ft 421 kts 331°
2026-05-05 19:47 42.24978 22.24108 40027 ft 421 kts 331°
2026-05-05 19:48 42.30177 22.20431 40036 ft 422 kts 331°
2026-05-05 19:48 42.35383 22.16744 40031 ft 421 kts 331°
2026-05-05 19:49 42.39698 22.13682 40028 ft 421 kts 330°
2026-05-05 19:49 42.44896 22.09988 40024 ft 422 kts 330°
2026-05-05 19:50 42.50095 22.06286 40023 ft 422 kts 330°
2026-05-05 19:50 42.55285 22.02583 40020 ft 422 kts 330°
2026-05-05 19:51 42.60486 21.98866 40005 ft 422 kts 331°
2026-05-05 19:51 42.65691 21.95138 40015 ft 423 kts 330°
2026-05-05 19:52 42.70894 21.91404 40011 ft 423 kts 330°
2026-05-05 19:52 42.76072 21.87682 40005 ft 423 kts 330°
2026-05-05 19:53 42.81284 21.83928 40006 ft 424 kts 330°
2026-05-05 19:53 42.86493 21.80168 39990 ft 423 kts 330°
2026-05-05 19:54 42.91711 21.76396 39989 ft 424 kts 330°
2026-05-05 19:54 42.96893 21.72642 39989 ft 424 kts 330°
2026-05-05 19:55 43.02126 21.68843 39990 ft 425 kts 330°
2026-05-05 19:55 43.07356 21.65040 39990 ft 425 kts 330°
2026-05-05 19:56 43.12581 21.61232 39989 ft 425 kts 330°
2026-05-05 19:56 43.17770 21.57444 39985 ft 425 kts 330°
2026-05-05 19:57 43.22998 21.53619 39989 ft 426 kts 330°
2026-05-05 19:57 43.28236 21.49781 39982 ft 426 kts 330°
2026-05-05 19:58 43.33474 21.45933 39979 ft 426 kts 330°
2026-05-05 19:58 43.38709 21.42081 39977 ft 426 kts 330°
2026-05-05 19:59 43.43907 21.38249 39969 ft 427 kts 330°
2026-05-05 19:59 43.49154 21.34372 39962 ft 427 kts 330°
2026-05-05 20:00 43.54372 21.30511 39958 ft 427 kts 330°
2026-05-05 20:00 43.59616 21.26621 39957 ft 428 kts 330°
2026-05-05 20:01 43.64866 21.22719 39959 ft 428 kts 330°
2026-05-05 20:01 43.70122 21.18805 39955 ft 428 kts 330°
2026-05-05 20:02 43.75370 21.14889 39955 ft 428 kts 330°
2026-05-05 20:02 43.80594 21.10984 39952 ft 429 kts 330°
2026-05-05 20:03 43.85851 21.07046 39954 ft 429 kts 330°
2026-05-05 20:03 43.91018 21.03167 39958 ft 429 kts 330°
2026-05-05 20:04 43.96269 20.99217 39957 ft 429 kts 330°
2026-05-05 20:04 44.01529 20.95253 39957 ft 430 kts 330°
2026-05-05 20:05 44.06756 20.91305 39952 ft 430 kts 330°
2026-05-05 20:05 44.12031 20.87313 39949 ft 430 kts 330°
2026-05-05 20:06 44.17296 20.83320 39953 ft 431 kts 329°
2026-05-05 20:06 44.22563 20.79318 39948 ft 431 kts 329°
2026-05-05 20:07 44.27803 20.75328 39947 ft 431 kts 329°
2026-05-05 20:07 44.33075 20.71306 39947 ft 432 kts 329°
2026-05-05 20:08 44.38361 20.67264 39947 ft 432 kts 329°
2026-05-05 20:08 44.43643 20.63217 39947 ft 432 kts 329°
2026-05-05 20:09 44.48275 20.59662 39953 ft 433 kts 329°
2026-05-05 20:09 44.53561 20.55596 39952 ft 433 kts 329°
2026-05-05 20:10 44.58859 20.51512 39957 ft 433 kts 329°
2026-05-05 20:10 44.64153 20.47424 39959 ft 434 kts 329°
2026-05-05 20:11 44.69415 20.43350 39961 ft 434 kts 329°
2026-05-05 20:11 44.74715 20.39239 39968 ft 435 kts 329°
2026-05-05 20:12 44.80018 20.35118 39964 ft 435 kts 329°
2026-05-05 20:12 44.85305 20.30999 39967 ft 435 kts 329°
2026-05-05 20:13 44.90608 20.26860 39968 ft 435 kts 329°
2026-05-05 20:13 44.95911 20.22712 39965 ft 436 kts 329°
2026-05-05 20:14 45.01193 20.18571 39968 ft 436 kts 329°
2026-05-05 20:14 45.06507 20.14396 39963 ft 437 kts 329°
2026-05-05 20:15 45.11829 20.10206 39961 ft 437 kts 329°
2026-05-05 20:15 45.17115 20.06036 39957 ft 437 kts 329°
2026-05-05 20:16 45.22430 20.01834 39952 ft 437 kts 329°
2026-05-05 20:16 45.27747 19.97620 39952 ft 438 kts 329°
2026-05-05 20:17 45.33077 19.93388 39954 ft 438 kts 329°
2026-05-05 20:17 45.38383 19.89165 39953 ft 439 kts 328°
2026-05-05 20:18 45.43721 19.84908 39956 ft 439 kts 328°
2026-05-05 20:18 45.49063 19.80638 39956 ft 439 kts 328°
2026-05-05 20:19 45.54362 19.76394 39952 ft 439 kts 328°
2026-05-05 20:19 45.57944 19.73519 39957 ft 440 kts 328°
2026-05-05 20:20 45.58490 19.73080 39953 ft 440 kts 328°
2026-05-05 20:20 45.63835 19.68782 39953 ft 440 kts 328°
2026-05-05 20:21 45.69172 19.64480 39954 ft 440 kts 328°
2026-05-05 20:21 45.74481 19.60192 39956 ft 440 kts 328°
2026-05-05 20:22 45.79814 19.55875 39955 ft 440 kts 328°
2026-05-05 20:22 45.85166 19.51533 39958 ft 441 kts 328°
2026-05-05 20:23 45.90505 19.47192 39956 ft 441 kts 328°
2026-05-05 20:23 45.95815 19.42864 39957 ft 441 kts 328°
2026-05-05 20:24 46.01163 19.38496 39955 ft 441 kts 328°
2026-05-05 20:24 46.06537 19.34201 39953 ft 442 kts 329°
2026-05-05 20:25 46.11942 19.29965 39954 ft 442 kts 329°
2026-05-05 20:25 46.17352 19.25706 39950 ft 442 kts 329°
2026-05-05 20:26 46.22720 19.21469 39950 ft 443 kts 329°
2026-05-05 20:26 46.28145 19.17178 39952 ft 443 kts 329°
2026-05-05 20:27 46.33554 19.12889 39954 ft 443 kts 329°
2026-05-05 20:27 46.38961 19.08593 39948 ft 443 kts 329°
2026-05-05 20:28 46.44345 19.04305 39947 ft 444 kts 329°
2026-05-05 20:28 46.49774 18.99971 39952 ft 444 kts 329°
2026-05-05 20:29 46.55187 18.95640 39950 ft 444 kts 329°
2026-05-05 20:29 46.59706 18.92016 39939 ft 444 kts 329°
2026-05-05 20:30 46.65122 18.87665 39943 ft 444 kts 329°
2026-05-05 20:30 46.70506 18.83329 39942 ft 445 kts 329°
2026-05-05 20:31 46.75935 18.78946 39940 ft 445 kts 329°
2026-05-05 20:31 46.81324 18.74586 39939 ft 445 kts 329°
2026-05-05 20:32 46.86741 18.70194 39934 ft 445 kts 329°
2026-05-05 20:32 46.92157 18.65791 39933 ft 445 kts 328°
2026-05-05 20:33 46.97557 18.61392 39930 ft 445 kts 328°
2026-05-05 20:33 47.02978 18.56965 39925 ft 445 kts 328°
2026-05-05 20:34 47.08401 18.52525 39925 ft 446 kts 328°
2026-05-05 20:34 47.12961 18.48783 39922 ft 446 kts 328°
2026-05-05 20:35 47.18377 18.44332 39923 ft 446 kts 328°
2026-05-05 20:35 47.23793 18.39869 39919 ft 446 kts 328°
2026-05-05 20:36 47.29205 18.35399 39914 ft 446 kts 328°
2026-05-05 20:36 47.34621 18.30914 39913 ft 446 kts 328°
2026-05-05 20:37 47.40006 18.26445 39910 ft 446 kts 328°
2026-05-05 20:37 47.45400 18.21958 39901 ft 446 kts 328°
2026-05-05 20:38 47.50833 18.17427 39895 ft 446 kts 328°
2026-05-05 20:38 47.56253 18.12897 39889 ft 446 kts 328°
2026-05-05 20:39 47.61666 18.08361 39884 ft 446 kts 328°
2026-05-05 20:39 47.67046 18.03843 39885 ft 447 kts 328°
2026-05-05 20:40 47.72474 17.99272 39883 ft 447 kts 328°
2026-05-05 20:40 47.77851 17.94734 39881 ft 446 kts 328°
2026-05-05 20:41 47.83266 17.90153 39875 ft 446 kts 328°
2026-05-05 20:41 47.88674 17.85567 39868 ft 446 kts 328°
2026-05-05 20:42 47.94079 17.80972 39860 ft 446 kts 328°
2026-05-05 20:42 47.99447 17.76398 39851 ft 446 kts 328°
2026-05-05 20:43 48.04839 17.71792 39848 ft 447 kts 328°
2026-05-05 20:43 48.09850 17.67501 39837 ft 447 kts 328°
2026-05-05 20:44 48.13425 17.64434 39829 ft 447 kts 328°
2026-05-05 20:44 48.16750 17.61578 39824 ft 447 kts 328°
2026-05-05 20:45 48.24042 17.55296 39817 ft 447 kts 328°
2026-05-05 20:45 48.29416 17.50654 39813 ft 447 kts 328°
2026-05-05 20:46 48.34814 17.45980 39818 ft 447 kts 327°
2026-05-05 20:46 48.40205 17.41308 39813 ft 447 kts 327°
2026-05-05 20:47 48.45601 17.36604 39819 ft 447 kts 327°
2026-05-05 20:47 48.50958 17.31931 39823 ft 447 kts 327°
2026-05-05 20:48 48.56349 17.27218 39802 ft 447 kts 327°
2026-05-05 20:48 48.61700 17.22529 39797 ft 447 kts 327°
2026-05-05 20:49 48.67094 17.17792 39793 ft 447 kts 327°
2026-05-05 20:49 48.72455 17.13071 39787 ft 447 kts 327°
2026-05-05 20:50 48.77823 17.08305 39785 ft 446 kts 324°
2026-05-05 20:50 48.82738 17.02581 39780 ft 445 kts 320°
2026-05-05 20:51 48.87588 16.96796 39791 ft 445 kts 319°
2026-05-05 20:51 48.92470 16.90945 39786 ft 445 kts 319°
2026-05-05 20:52 48.97329 16.85105 39790 ft 444 kts 319°
2026-05-05 20:52 49.02155 16.79290 39800 ft 445 kts 319°
2026-05-05 20:53 49.07014 16.73420 39804 ft 445 kts 319°
2026-05-05 20:53 49.11879 16.67528 39804 ft 445 kts 319°
2026-05-05 20:54 49.16748 16.61616 39803 ft 445 kts 319°
2026-05-05 20:54 49.21603 16.55706 39802 ft 445 kts 319°
2026-05-05 20:55 49.26477 16.49758 39796 ft 445 kts 319°
2026-05-05 20:55 49.31291 16.43867 39790 ft 445 kts 319°
2026-05-05 20:56 49.36133 16.37926 39775 ft 445 kts 318°
2026-05-05 20:56 49.40975 16.31970 39776 ft 445 kts 318°
2026-05-05 20:57 49.45812 16.26004 39777 ft 445 kts 318°
2026-05-05 20:57 49.50609 16.20073 39774 ft 445 kts 318°
2026-05-05 20:58 49.55441 16.14083 39776 ft 445 kts 318°
2026-05-05 20:58 49.60278 16.08070 39773 ft 445 kts 318°
2026-05-05 20:59 49.65074 16.02095 39771 ft 445 kts 318°
2026-05-05 20:59 49.69893 15.96072 39765 ft 445 kts 317°
2026-05-05 21:00 49.74692 15.90061 39759 ft 445 kts 317°
2026-05-05 21:00 49.79507 15.84013 39760 ft 445 kts 317°
2026-05-05 21:01 49.84768 15.78936 39745 ft 452 kts 339°
2026-05-05 21:01 49.90719 15.75670 39762 ft 453 kts 335°
2026-05-05 21:02 49.96593 15.72139 39750 ft 453 kts 335°
2026-05-05 21:02 50.02474 15.68583 39749 ft 454 kts 335°
2026-05-05 21:03 50.08377 15.65004 39751 ft 454 kts 335°
2026-05-05 21:03 50.14282 15.61415 39751 ft 455 kts 335°
2026-05-05 21:04 50.20146 15.57856 39749 ft 455 kts 335°
2026-05-05 21:04 50.26058 15.54264 39743 ft 456 kts 335°
2026-05-05 21:05 50.31951 15.50691 39754 ft 457 kts 335°
2026-05-05 21:05 50.36924 15.47674 39762 ft 457 kts 335°
2026-05-05 21:06 50.42848 15.44072 39757 ft 457 kts 335°
2026-05-05 21:06 50.48790 15.40457 39758 ft 457 kts 335°
2026-05-05 21:07 50.54667 15.36932 39756 ft 458 kts 339°
2026-05-05 21:07 50.60681 15.33583 39775 ft 458 kts 336°
2026-05-05 21:08 50.66630 15.30159 39770 ft 458 kts 336°
2026-05-05 21:08 50.72626 15.26688 39769 ft 458 kts 336°
2026-05-05 21:09 50.78624 15.23217 39776 ft 458 kts 336°
2026-05-05 21:09 50.84601 15.19819 39770 ft 458 kts 337°
2026-05-05 21:10 50.90618 15.16418 39777 ft 459 kts 336°
2026-05-05 21:10 50.96590 15.13005 39781 ft 459 kts 336°
2026-05-05 21:11 51.02620 15.09548 39784 ft 459 kts 336°
2026-05-05 21:11 51.08630 15.06093 39786 ft 459 kts 336°
2026-05-05 21:12 51.14647 15.02624 39786 ft 459 kts 336°
2026-05-05 21:12 51.20660 14.99147 39785 ft 459 kts 336°
2026-05-05 21:13 51.26647 14.95676 39790 ft 459 kts 336°
2026-05-05 21:13 51.32664 14.92178 39794 ft 459 kts 336°
2026-05-05 21:14 51.38640 14.88694 39792 ft 459 kts 336°
2026-05-05 21:14 51.44649 14.85180 39796 ft 459 kts 336°
2026-05-05 21:15 51.50661 14.81656 39799 ft 459 kts 336°
2026-05-05 21:15 51.56673 14.78122 39798 ft 459 kts 336°
2026-05-05 21:16 51.62680 14.74580 39799 ft 460 kts 336°
2026-05-05 21:16 51.68692 14.71025 39800 ft 460 kts 336°
2026-05-05 21:17 51.74704 14.67460 39803 ft 460 kts 336°
2026-05-05 21:17 51.80711 14.63889 39803 ft 460 kts 336°
2026-05-05 21:18 51.86675 14.60332 39805 ft 460 kts 336°
2026-05-05 21:18 51.92686 14.56738 39806 ft 460 kts 336°
2026-05-05 21:19 51.98703 14.53129 39809 ft 460 kts 336°
2026-05-05 21:19 52.04708 14.49517 39811 ft 460 kts 336°
2026-05-05 21:20 52.10731 14.45885 39816 ft 460 kts 336°
2026-05-05 21:20 52.16709 14.42269 39815 ft 460 kts 335°
2026-05-05 21:21 52.22713 14.38626 39819 ft 460 kts 335°
2026-05-05 21:21 52.28716 14.34974 39823 ft 459 kts 335°
2026-05-05 21:22 52.34927 14.32450 39831 ft 464 kts 347°
2026-05-05 21:22 52.41274 14.30647 39828 ft 465 kts 346°
2026-05-05 21:23 52.47644 14.28855 39831 ft 464 kts 346°
2026-05-05 21:23 52.54027 14.27056 39833 ft 464 kts 346°
2026-05-05 21:24 52.60361 14.25267 39833 ft 464 kts 346°
2026-05-05 21:24 52.66730 14.23463 39837 ft 463 kts 346°
2026-05-05 21:25 52.73100 14.21653 39847 ft 463 kts 346°
2026-05-05 21:25 52.79424 14.19850 39845 ft 463 kts 346°
2026-05-05 21:26 52.85776 14.18035 39854 ft 463 kts 346°
2026-05-05 21:26 52.92139 14.16211 39855 ft 463 kts 346°
2026-05-05 21:27 52.98499 14.14382 39847 ft 463 kts 346°
2026-05-05 21:27 53.04843 14.12552 39859 ft 462 kts 346°
2026-05-05 21:28 53.11183 14.10718 39863 ft 462 kts 346°
2026-05-05 21:28 53.17490 14.08888 39866 ft 462 kts 346°
2026-05-05 21:29 53.23839 14.07040 39868 ft 462 kts 346°
2026-05-05 21:29 53.30135 14.05203 39874 ft 461 kts 346°
2026-05-05 21:30 53.36472 14.03347 39879 ft 461 kts 346°
2026-05-05 21:30 53.42757 14.01502 39880 ft 461 kts 346°
2026-05-05 21:31 53.49084 13.99638 39879 ft 460 kts 346°
2026-05-05 21:31 53.55412 13.97769 39888 ft 460 kts 346°
2026-05-05 21:32 53.61707 13.95904 39560 ft 457 kts 346°
2026-05-05 21:32 53.64875 13.94961 38618 ft 464 kts 346°
2026-05-05 21:32 53.68023 13.94026 38183 ft 456 kts 345°
2026-05-05 21:33 53.71134 13.93098 37506 ft 453 kts 345°
2026-05-05 21:33 53.74249 13.92169 36731 ft 454 kts 345°
2026-05-05 21:33 53.77359 13.91239 35939 ft 455 kts 344°
2026-05-05 21:33 53.80487 13.90303 35109 ft 458 kts 344°
2026-05-05 21:34 53.83639 13.89357 34302 ft 460 kts 343°
2026-05-05 21:34 53.86807 13.88407 33403 ft 463 kts 343°
2026-05-05 21:34 53.89997 13.87451 32459 ft 466 kts 344°
2026-05-05 21:34 53.93159 13.86499 31538 ft 468 kts 344°
2026-05-05 21:35 53.96372 13.85531 30621 ft 470 kts 344°
2026-05-05 21:35 53.99606 13.84554 29659 ft 472 kts 344°
2026-05-05 21:35 54.02846 13.83574 28576 ft 473 kts 345°
2026-05-05 21:35 54.06092 13.82591 27484 ft 475 kts 345°
2026-05-05 21:36 54.09360 13.81599 26376 ft 477 kts 345°
2026-05-05 21:36 54.12631 13.80605 25327 ft 477 kts 346°
2026-05-05 21:36 54.15898 13.79610 24497 ft 473 kts 346°
2026-05-05 21:36 54.19123 13.78627 23717 ft 469 kts 346°
2026-05-05 21:37 54.22319 13.77650 22891 ft 464 kts 346°
2026-05-05 21:37 54.25442 13.76694 22097 ft 458 kts 346°
2026-05-05 21:37 54.28556 13.75740 21315 ft 452 kts 346°
2026-05-05 21:37 54.31640 13.74794 20560 ft 446 kts 346°
2026-05-05 21:38 54.34683 13.73859 19828 ft 441 kts 346°
2026-05-05 21:38 54.37685 13.72935 19128 ft 437 kts 346°
2026-05-05 21:38 54.40659 13.72018 18448 ft 432 kts 346°
2026-05-05 21:38 54.43600 13.71111 17717 ft 427 kts 346°
2026-05-05 21:39 54.46509 13.70212 16991 ft 422 kts 346°
2026-05-05 21:39 54.49394 13.69319 16282 ft 418 kts 346°
2026-05-05 21:39 54.52241 13.68436 15603 ft 413 kts 346°
2026-05-05 21:39 54.55059 13.67562 14953 ft 409 kts 347°
2026-05-05 21:40 54.57824 13.66702 14143 ft 397 kts 347°
2026-05-05 21:40 54.60520 13.65863 12801 ft 396 kts 347°
2026-05-05 21:40 54.63208 13.65025 11851 ft 386 kts 347°
2026-05-05 21:40 54.65751 13.64232 11658 ft 356 kts 347°
2026-05-05 21:41 54.68111 13.63494 11478 ft 331 kts 347°
2026-05-05 21:41 54.70308 13.62807 11306 ft 309 kts 346°
2026-05-05 21:41 54.72358 13.62165 11120 ft 291 kts 346°
2026-05-05 21:41 54.74290 13.61560 10961 ft 274 kts 346°
2026-05-05 21:42 54.76121 13.60985 10806 ft 261 kts 346°
2026-05-05 21:42 54.77910 13.60423 10662 ft 272 kts 346°
2026-05-05 21:42 54.79797 13.59830 10500 ft 279 kts 346°
2026-05-05 21:42 54.81717 13.59227 10356 ft 281 kts 346°
2026-05-05 21:43 54.83647 13.58619 10228 ft 282 kts 346°
2026-05-05 21:43 54.85579 13.58011 10087 ft 281 kts 346°
2026-05-05 21:43 54.87495 13.57406 9944 ft 280 kts 346°
2026-05-05 21:43 54.89421 13.56798 9647 ft 281 kts 347°
2026-05-05 21:44 54.91346 13.56189 9308 ft 280 kts 347°
2026-05-05 21:44 54.92614 13.55768 9059 ft 280 kts 346°
2026-05-05 21:44 54.94530 13.55128 8734 ft 278 kts 347°
2026-05-05 21:44 54.96430 13.54495 8444 ft 275 kts 347°
2026-05-05 21:45 54.98300 13.53873 8162 ft 272 kts 347°
2026-05-05 21:45 55.00156 13.53255 7857 ft 270 kts 347°
2026-05-05 21:45 55.01970 13.52650 7569 ft 268 kts 347°
2026-05-05 21:45 55.03797 13.52043 7279 ft 266 kts 347°
2026-05-05 21:46 55.05609 13.51438 6988 ft 264 kts 348°
2026-05-05 21:46 55.07406 13.50838 6701 ft 262 kts 348°
2026-05-05 21:46 55.09191 13.50242 6412 ft 260 kts 349°
2026-05-05 21:46 55.10972 13.49647 6108 ft 259 kts 349°
2026-05-05 21:47 55.12727 13.49059 5784 ft 258 kts 349°
2026-05-05 21:47 55.14330 13.48522 5518 ft 256 kts 349°
2026-05-05 21:47 55.16073 13.47936 5247 ft 254 kts 349°
2026-05-05 21:47 55.17774 13.47364 5000 ft 251 kts 350°
2026-05-05 21:48 55.18357 13.47168 4925 ft 250 kts 350°